Location: Chassagnes
(44.4047°N, 4.1657°E)
Time: 12:36:12
(UTC+00:00)

Cosmos 1346 Rocket - Pass Details

Date: 27 October 2020
Orbit: 535 x 543 km, 81.2° (Epoch: 23 November)

Event Time Altitude Azimuth Distance (km) Brightness Sun altitude
Rises 17:44:40 0° 358° (N) 2,714 6.3 -12.2°
Reaches altitude 10° 17:47:01 10° 9° (N) 1,817 5.3 -12.6°
Maximum altitude 17:50:36 31° 73° (ENE) 970 3.5 -13.3°
Drops below altitude 10° 17:54:10 10° 137° (SE) 1,806 5.1 -13.9°
Enters shadow 17:54:13 10° 137° (SE) 1,821 5.1 -13.9°
